Location: Northern Prairie Star Party
(53.2167°N, 112.5333°W)
Time: 01:01:10
(UTC-07:00)

Daily predictions for brighter satellites

Satellite Brightness Start Highest point End
(mag) Time Altitude Azimuth Time Altitude Azimuth Time Altitude Azimuth
ATLAS 2AS CENTAUR R/B 4.2 03:28:41 37° NNE 03:28:41 37° NNE 03:34:33 10° ENE
USA 234 4.1 03:57:00 10° E 04:01:28 45° ENE 04:01:28 45° ENE
SL-16 R/B 4.4 04:39:13 15° SSE 04:39:13 15° SSE 04:40:11 10° SSE
SeaSat 1 3.9 04:33:02 10° NE 04:36:52 33° E 04:36:52 33° E
Cosmos 2297 Rocket 2.8 04:47:14 52° E 04:47:14 52° E 04:52:13 10° NE
Cosmos 2227 Rocket 2.5 05:00:41 60° NE 05:00:41 60° NE 05:05:19 10° NNE
NOSS 3-1 (A) 3.8 05:09:42 64° NW 05:11:06 87° SW 05:19:19 10° SE
ADEOS II 3.2 05:06:22 10° NNE 05:09:16 34° N 05:09:16 34° N
Cosmos 2082 Rocket 4.4 05:12:08 13° N 05:12:52 13° N 05:15:27 10° NNE
CZ-4B R/B 4.4 05:08:39 10° NNE 05:11:17 30° N 05:11:17 30° N
Cosmos 1943 4.1 05:13:16 33° N 05:15:21 46° NE 05:20:50 10° ESE
ATLAS 2AS CENTAUR R/B 3.5 05:16:07 35° NNW 05:19:39 57° NNE 05:27:24 10° ESE
ADEOS Rocket 4.1 05:15:15 10° N 05:21:16 39° NW 05:21:16 39° NW
Cosmos 1864 Rocket 4.3 05:24:44 64° SW 05:25:41 78° WNW 05:31:56 10° N
Cosmos 1725 Rocket 3.8 05:25:35 59° SW 05:26:48 77° W 05:33:10 10° N
Cosmos 2082 3.6 05:30:27 73° NW 05:30:27 73° NW 05:36:11 10° NNE
Cosmos 2151 4.3 05:36:01 31° SSE 05:36:01 31° SSE 05:38:17 10° SSE
Cosmos 1603 3.5 05:38:02 66° WNW 05:38:45 78° WSW 05:44:23 10° SSE
USA 234 3.2 05:39:50 10° ESE 05:46:26 87° SSW 05:48:50 44° WNW
Cosmos 2219 4.4 05:47:31 26° NNW 05:47:31 26° NNW 05:51:35 10° NNE
NOSS 3-1 (C) 4.1 05:49:02 43° W 05:50:56 52° SW 05:58:47 10° SSE
Cosmos 1842 Rocket 3.4 05:52:23 79° WNW 05:52:23 79° WNW 05:56:44 10° N
ATLAS CENTAUR R/B 3.3 05:54:47 19° N 05:54:47 19° N 05:57:15 10° NE
Cosmos 1805 Rocket 3.9 05:50:58 17° N 05:54:23 66° ENE 05:58:45 10° SSE
COSMO-SKYMED 1 3.6 05:50:48 10° S 05:53:20 33° SSW 05:53:20 33° SSW
CZ-4 R/B 4.1 05:52:40 10° NE 05:55:49 21° E 05:58:59 10° SE
Cosmos 923 Rocket 3.9 05:58:27 38° NW 06:00:28 77° WSW 06:05:43 10° SSE
Ariane Rocket 3.7 05:55:30 10° NNE 06:00:31 54° E 06:05:31 10° S
Cosmos 220 Rocket 3.9 06:02:52 55° SW 06:03:45 75° WNW 06:08:09 10° NNE
SJ-6F 4.4 06:03:32 10° N 06:07:41 60° WNW 06:07:52 59° W
Cosmos 1680 Rocket 3.4 06:05:26 26° NNW 06:08:29 83° WSW 06:13:48 10° SSE
Meteor 1-4 Rocket 3.7 06:10:11 32° N 06:10:11 32° N 06:12:25 10° N
Cosmos 2233 Rocket 4.0 06:07:18 10° SSW 06:13:29 58° WNW 06:19:44 10° N
ATLAS CENTAUR R/B 2.5 06:12:52 41° NW 06:13:55 53° NNE 06:22:01 10° E
Coronas F rocket 2.6 06:14:38 36° ESE 06:14:38 36° ESE 06:16:31 10° SSE
Sich 1 3.3 06:10:38 10° N 06:15:01 70° ENE 06:19:21 10° SSE
SeaSat 1 2.6 06:10:29 10° NNE 06:15:16 51° NW 06:16:41 38° W
SL-16 R/B 4.2 06:21:10 12° SW 06:21:10 12° SW 06:21:42 10° SW
Cosmos 1633 Rocket 3.3 06:15:54 10° N 06:20:17 70° ENE 06:24:37 10° SSE
Cosmos 1818 4.3 06:23:50 30° WNW 06:25:16 35° NNW 06:30:18 10° NE
Cosmos 1703 3.2 06:24:06 31° NNW 06:25:49 61° W 06:29:40 10° S
Okean-O 3.8 06:24:12 10° N 06:26:56 26° NW 06:26:56 26° NW
Cosmos 2297 Rocket 2.7 06:29:04 30° W 06:30:59 38° NW 06:36:17 10° NNE
Cosmos 968 Rocket 3.6 06:27:04 13° SW 06:31:36 56° WNW 06:36:49 10° NNE
Cosmos 389 Rocket 4.1 06:28:16 10° SSE 06:31:43 38° E 06:35:10 10° NNE
Nadezhda 4 Rocket 4.0 06:27:14 10° N 06:33:38 88° E 06:39:58 10° S
Cosmos 1626 2.1 06:31:40 23° NNW 06:33:49 62° W 06:37:30 10° S
Cosmos 2058 3.7 06:36:59 31° W 06:36:59 31° W 06:40:19 10° SSW
Meteor 1-28 Rocket 4.2 06:33:43 10° SSW 06:36:22 28° WSW 06:36:22 28° WSW
Cosmos 2034 Rocket 4.0 06:31:14 10° S 06:37:27 85° E 06:43:47 10° NNE
Cosmos 1271 Rocket 2.8 06:37:05 10° SSW 06:40:45 46° WNW 06:44:25 10° N
YAOGAN 1 4.0 06:37:45 10° NNE 06:41:53 41° E 06:45:59 10° S
Cosmos 1184 Rocket 3.0 06:41:37 34° NW 06:42:36 47° W 06:45:48 10° S
Cosmos 2112 Rocket 4.2 06:39:47 17° NW 06:43:46 53° WSW 06:48:57 10° S
Cosmos 2227 Rocket 3.1 06:42:32 24° WNW 06:44:20 28° NW 06:49:14 10° NNE
Cosmos 1340 Rocket 4.2 06:46:21 21° WSW 06:46:21 21° WSW 06:48:29 10° SW
NOAA 6 4.4 06:41:10 10° N 06:45:59 40° WNW 06:50:48 10° SW
ADEOS II 3.6 06:47:15 10° NNW 06:50:14 17° NW 06:50:14 17° NW
Cosmos 1513 Rocket 4.5 06:45:23 10° SSW 06:51:42 73° WNW 06:58:09 10° N
Meteor 1-16 Rocket 4.4 06:47:06 10° SW 06:52:11 42° WNW 06:57:15 10° N
Cosmos 1092 Rocket 4.0 06:46:08 10° N 06:52:30 89° E 06:58:45 10° S
Cosmos 292 Rocket 4.5 06:50:26 22° WNW 06:52:36 32° WSW 06:56:50 10° SSW
Cosmos 1666 Rocket 3.7 06:48:57 10° NNW 06:53:17 50° W 06:57:36 10° S
Cosmos 2221 2.7 06:51:15 10° SSW 06:55:26 47° WNW 06:59:38 10° N
Meteor 2-12 Rocket 4.5 06:51:48 10° SSW 06:57:51 58° WNW 07:03:58 10° N
Cosmos 2082 Rocket 4.1 06:55:04 10° NNW 06:59:19 21° NNE 07:03:34 10° ENE
Cosmos 1943 3.6 06:55:06 15° NW 06:59:27 43° WSW 07:04:46 10° S
Cosmos 1356 Rocket 4.1 06:57:10 18° NW 06:59:29 30° W 07:03:08 10° SSW
NOSS 3-4 (A) 4.3 06:54:13 14° NW 06:59:53 50° NNE 07:06:52 10° ESE
NOSS 3-4 (C) 4.3 06:54:20 14° NW 06:59:59 50° NNE 07:06:57 10° ESE
SMAP 3.4 06:56:34 10° NNE 07:01:14 70° ESE 07:05:53 10° S
Cosmos 1933 Rocket 3.6 07:00:25 10° NNW 07:04:55 89° W 07:09:22 10° S
Cosmos 192 4.3 07:01:17 10° NNW 07:06:14 69° WSW 07:11:10 10° SSE
Cosmos 1464 Rocket 4.2 07:01:00 10° SSW 07:07:07 51° WNW 07:13:13 10° N
Helios 1B rocket 2.4 07:04:22 10° S 07:08:27 67° WSW 07:12:33 10° NNW
ATLAS 2AS CENTAUR R/B 3.2 07:03:33 12° NW 07:10:59 64° SW 07:18:33 10° SSE
Cosmos 1777 Rocket 4.2 07:07:29 10° SW 07:12:32 48° WNW 07:17:36 10° NNE
CSL-04 Debris 4.2 07:07:10 10° NNE 07:12:37 62° WNW 07:18:00 10° SSW
SPOT 3 Rocket 3.8 07:12:08 10° NNE 07:17:22 76° ESE 07:22:36 10° SSW
Cosmos 2344 4.4 07:10:16 10° SSW 07:17:49 60° SE 07:26:47 10° NE
COSMOS 2406 3.4 07:15:08 10° NNW 07:20:56 79° ENE 07:26:44 10° SE
SJ-12 3.9 07:18:52 10° N 07:22:55 58° WNW 07:26:55 10° SSW
IRS-1A Rocket 4.4 07:18:26 10° NNE 07:24:19 66° WNW 07:30:05 10° SSW
Cosmos 1470 Rocket 3.7 07:21:42 10° NNW 07:25:56 53° W 07:30:09 10° S
Cosmos 1908 3.4 07:23:53 10° SSW 07:27:37 50° WNW 07:31:23 10° N
Cosmos 2263 Rocket 2.5 07:22:59 10° SSW 07:28:40 78° ESE 07:34:24 10° NNE
USA 234 4.0 07:23:54 10° SSE 07:29:58 39° SW 07:36:03 10° WNW
CZ-4 R/B 1.6 07:27:11 10° N 07:31:07 49° WNW 07:35:04 10° SW
CZ-2C R/B 2.3 07:28:29 10° N 07:33:02 57° WNW 07:37:29 10° SSW
ATLAS CENTAUR R/B 3.2 07:31:35 10° NW 07:34:39 19° NNE 07:37:35 10° ENE
Cosmos 1655 Rocket 4.1 07:29:12 10° N 07:35:32 88° W 07:41:46 10° S
IDEFIX/ARIANE 42P 2.7 07:31:48 10° N 07:37:00 59° WNW 07:42:10 10° SSW
Meteor 1-29 3.6 07:33:49 10° S 07:37:07 38° W 07:40:27 10° NNW
COS B Rocket 4.3 07:34:36 10° NNE 07:37:59 42° E 07:41:12 10° SSE
CSL-04 Rocket 4.1 07:33:29 10° N 07:38:19 36° WNW 07:43:07 10° SW
Ariane Rocket 3.8 07:34:52 10° N 07:39:16 30° WNW 07:43:39 10° WSW
Cosmos 1726 2.3 07:36:22 10° S 07:40:04 80° E 07:43:48 10° NNE
Cosmos 1892 3.5 07:37:11 10° N 07:40:57 53° ENE 07:44:43 10° SSE
Cosmos 2228 Rocket 3.3 07:40:58 10° SSW 07:45:15 48° WNW 07:49:33 10° N
Iridium 4 Rocket 3.2 07:42:15 10° NNW 07:46:24 54° W 07:50:46 10° SSW
Cosmos 1300 2.7 07:43:49 10° S 07:47:39 87° WNW 07:51:32 10° N
COSMOS 2441 4.3 07:44:25 10° N 07:49:12 69° WNW 07:53:57 10° SSW
AQUARIUS 4.5 07:45:52 10° N 07:50:11 45° WNW 07:54:28 10° SW
SeaSat 1 4.0 07:48:48 10° N 07:51:56 17° NNW 07:55:04 10° WNW
SJ-6B 4.4 07:48:16 10° NNE 07:52:13 42° E 07:56:05 10° S
Meteor 2-3 Rocket 3.8 07:48:55 10° NNW 07:54:46 81° W 08:00:34 10° S
